Location: Altenst�hlen
(53.5567°N, 8.9425°E)
Time: 01:03:15
(UTC+00:00)

STARLINK-72 - Pass Details

Date: 23 October 2019
Orbit: 548 x 551 km, 53.0° (Epoch: 18 November)

Event Time Altitude Azimuth Distance (km) Brightness Sun altitude
Rises 17:10:27 0° 270° (W) 2,718 9.4 -9.5°
Reaches altitude 10° 17:12:40 10° 270° (W) 1,825 7.9 -9.8°
Maximum altitude 17:16:50 85° 183° (S) 558 3.6 -10.4°
Enters shadow 17:20:10 15° 95° (E) 1,506 5.2 -10.9°
